Location: Unspecified
(0.0000°N, 0.0000°E)
Time: 15:48:28
(UTC+00:00)

MIDAS 3 Debris - Visible Passes

Search period start: 15 June 2025 00:00
Search period end: 25 June 2025 00:00
Orbit: 3305 x 3563 km, 91.1° (Epoch: 15 June)

Date Brightness Start Highest point End Pass type
(mag) Time Alt. Az. Time Alt. Az. Time Alt. Az.
15 Jun ? 17:58:23 10° SE 18:13:10 30° E 18:27:16 10° NNE visible
15 Jun ? 20:34:40 10° S 20:52:00 52° W 21:08:59 10° NNW visible
16 Jun ? 18:08:25 10° SE 18:24:23 37° E 18:39:35 10° NNE visible
16 Jun ? 20:46:34 10° SSW 21:03:11 44° W 21:19:33 10° NNW visible
17 Jun ? 18:18:47 10° SSE 18:35:35 44° E 18:51:39 10° NNE visible
17 Jun ? 20:58:39 10° SSW 21:14:21 37° W 21:29:54 10° NW visible
18 Jun ? 18:29:21 10° SSE 18:46:49 52° E 19:03:30 10° N visible
18 Jun ? 21:11:00 10° SSW 21:25:31 30° W 21:39:58 10° NW visible
19 Jun ? 18:40:07 10° SSE 18:58:04 61° E 19:15:13 10° N visible
19 Jun ? 21:23:40 10° SSW 21:36:40 24° W 21:49:38 10° NW visible
20 Jun ? 18:51:03 10° SSE 19:09:18 71° E 19:26:46 10° N visible
20 Jun ? 21:36:52 10° SW 21:47:47 19° W 21:58:43 10° WNW visible
21 Jun ? 19:02:09 10° S 19:20:31 82° E 19:38:12 10° N visible
21 Jun ? 21:51:03 10° SW 21:58:52 14° W 22:06:44 10° WNW visible
22 Jun ? 19:13:22 10° S 19:31:46 88° W 19:49:29 10° N visible
23 Jun ? 04:51:09 10° ENE 04:57:39 13° E 05:04:08 10° ESE visible
23 Jun ? 19:24:43 10° S 19:43:00 77° W 20:00:39 10° NNW visible
24 Jun ? 04:58:43 10° ENE 05:08:44 18° E 05:18:45 10° SE visible
24 Jun ? 19:36:13 10° S 19:54:12 67° W 20:11:40 10° NNW visible
